Content
SEND FEEDBACK

Daily
Averages
Monthly
Summary
United States of America

BOX ELDER, SOUTH DAKOTA


Home > North America > United States > South Dakota
Elevation: 3170 feet     Latitude: 44 09N     Longitude: 103 06W

WEATHER
 
SELECT A DAY
Number of Records: 204,161;   Date Range: 1/1/95 - 8/12/14
 
SHARE

PRINT THIS DATA

[ ← Previous Day ]
WEATHER ALMANAC - FEBRUARY 24, 2013
[ Next Day → ]
[ °C ]   °F
Weather ElementAverageHighLow
Temperature31.4 °F33.8 °F (12:01 am)20.7 °F (11:55 pm)
Dewpoint27.1 °F32 °F (12:26 am)14.5 °F (11:55 pm)
Humidity84.5 %100 % (2:16 am)64 % (5:55 pm)
Barometer30.00 in30.17 in (7:55 pm)29.83 in (12:01 am)
Wind Speed18.4 mph26.5 mph (1:36 pm)
Wind Gust34.5 mph (1:36 pm)
Weather ElementAverage
Visibility8.6 mi
Wind DirectionNNW (323.4 °)

Weather ElementTotal
Precipitation0.01 in
Heating Degree Days37.8 (Base 65)
Averaged from 89 records on February 24, 2013
WEATHER CONDITIONS BREAKOUT
WIND DIRECTION BREAKOUT
WEATHER BY HOUR - FEBRUARY 24, 2013
[ °C ]   °F
Local TimeTemperatureDewpointHumidityBarometerVisibilityWind DirectionWind SpeedGust SpeedPrecipitationEventsConditions
12:01 AM33.8 °F30.2 °F87 %29.83 in10.0 miNorth (10°)6.9 mphOvercast
12:17 AM33.8 °F30.2 °F87 %29.84 in10.0 miNorth (10°)5.8 mphRainLight Rain
12:26 AM33.8 °F32.0 °F93 %29.84 in10.0 miVariable5.8 mphRainLight Rain
12:37 AM33.8 °F32.0 °F93 %29.85 in10.0 miNNW (340°)9.2 mphRainLight Rain
12:49 AM33.8 °F32.0 °F93 %29.86 in10.0 miNNW (330°)11.5 mphRainLight Rain
12:55 AM33.6 °F31.6 °F92 %29.86 in10.0 miNNW (330°)12.7 mph0.00 inRainLight Rain
1:15 AM33.8 °F32.0 °F93 %29.86 in2.5 miNNW (330°)11.5 mphRainLight Rain
1:21 AM33.8 °F32.0 °F93 %29.86 in3.0 miNNW (340°)11.5 mphSnowLight Snow
1:55 AM32.7 °F31.5 °F95 %29.87 in10.0 miNNW (340°)16.1 mph0.01 inRainLight Rain
2:16 AM32.0 °F32.0 °F100 %29.87 in10.0 miNNW (340°)18.4 mphOvercast
2:26 AM32.0 °F32.0 °F100 %29.87 in10.0 miNNW (340°)18.4 mph26.5 mphRainLight Rain
2:37 AM32.0 °F30.2 °F93 %29.89 in10.0 miNNW (330°)20.7 mph26.5 mphRainLight Rain
2:40 AM32.0 °F30.2 °F93 %29.89 in10.0 miNNW (330°)21.9 mphOvercast
2:41 AM32.0 °F30.2 °F93 %29.89 in10.0 miNNW (330°)19.6 mphOvercast
2:43 AM32.0 °F30.2 °F93 %29.89 in10.0 miNNW (340°)24.2 mph28.8 mphOvercast
2:55 AM31.6 °F28.0 °F87 %29.89 in10.0 miNNW (330°)18.4 mph28.8 mph0.00 inOvercast
3:01 AM32.0 °F28.4 °F87 %29.89 in10.0 miNNW (330°)18.4 mphOvercast
3:06 AM32.0 °F28.4 °F87 %29.90 in10.0 miNNW (330°)19.6 mph25.3 mphOvercast
3:26 AM32.0 °F28.4 °F87 %29.91 in10.0 miNNW (330°)17.3 mph27.6 mphOvercast
3:28 AM32.0 °F28.4 °F87 %29.91 in10.0 miNNW (340°)17.3 mph27.6 mphOvercast
3:35 AM32.0 °F26.6 °F80 %29.91 in10.0 miNNW (330°)18.4 mphOvercast
3:45 AM32.0 °F26.6 °F80 %29.92 in10.0 miNNW (330°)18.4 mphOvercast
3:55 AM31.5 °F27.1 °F84 %29.92 in10.0 miNNW (330°)16.1 mphOvercast
4:01 AM32.0 °F26.6 °F80 %29.93 in10.0 miNNW (330°)16.1 mphOvercast
4:36 AM32.0 °F28.4 °F87 %29.94 in10.0 miNNW (330°)18.4 mphOvercast
4:40 AM32.0 °F28.4 °F87 %29.94 in10.0 miNNW (340°)18.4 mphOvercast
4:42 AM32.0 °F28.4 °F87 %29.94 in10.0 miNNW (340°)18.4 mphOvercast
4:43 AM32.0 °F28.4 °F87 %29.94 in10.0 miNNW (340°)17.3 mphOvercast
4:46 AM32.0 °F28.4 °F87 %29.93 in10.0 miNNW (340°)16.1 mphOvercast
4:48 AM32.0 °F28.4 °F87 %29.94 in10.0 miNNW (340°)19.6 mphOvercast
4:55 AM31.1 °F27.7 °F87 %29.94 in8.0 miNNW (340°)21.9 mph26.5 mph0.00 inOvercast
5:00 AM30.2 °F28.4 °F93 %29.95 in6.0 miNNW (340°)19.6 mphSnowLight Snow
5:06 AM30.2 °F28.4 °F93 %29.95 in6.0 miNNW (340°)17.3 mphSnowLight Snow
5:11 AM30.2 °F28.4 °F93 %29.95 in7.0 miNNW (340°)18.4 mphSnowLight Snow
5:45 AM30.2 °F28.4 °F93 %29.97 in7.0 miNNW (340°)13.8 mphSnowLight Snow
5:55 AM30.9 °F27.9 °F88 %29.98 in10.0 miNNW (340°)15.0 mph0.00 inSnowLight Snow
6:10 AM30.2 °F28.4 °F93 %29.99 in8.0 miNNW (340°)16.1 mphSnowLight Snow
6:14 AM30.2 °F28.4 °F93 %29.99 in8.0 miNNW (340°)16.1 mphSnowLight Snow
6:15 AM30.2 °F28.4 °F93 %29.99 in9.0 miNNW (340°)16.1 mphSnowLight Snow
6:21 AM30.2 °F28.4 °F93 %29.99 in10.0 miNNW (340°)17.3 mphSnowLight Snow
6:25 AM30.2 °F28.4 °F93 %29.99 in10.0 miNNW (340°)19.6 mphSnowLight Snow
6:34 AM30.2 °F28.4 °F93 %29.99 in2.5 miNNW (340°)17.3 mphSnowLight Snow
6:36 AM30.2 °F28.4 °F93 %29.99 in2.0 miNNW (340°)18.4 mphSnowLight Snow
6:38 AM30.2 °F28.4 °F93 %29.99 in1.8 miNNW (340°)17.3 mphSnowLight Snow
6:39 AM30.2 °F28.4 °F93 %29.99 in1.5 miNNW (340°)17.3 mphSnowLight Snow
6:42 AM30.2 °F28.4 °F93 %30.00 in1.8 miNNW (340°)17.3 mphSnowLight Snow
6:45 AM30.2 °F28.4 °F93 %30.00 in1.8 miNNW (340°)17.3 mphSnowLight Snow
6:46 AM30.2 °F28.4 °F93 %30.00 in2.0 miNNW (340°)17.3 mphSnowLight Snow
6:49 AM30.2 °F28.4 °F93 %30.00 in2.5 miNNW (340°)21.9 mph26.5 mphSnowLight Snow
6:51 AM30.2 °F28.4 °F93 %30.00 in3.0 miNNW (340°)21.9 mph26.5 mphSnowLight Snow
6:55 AM30.7 °F27.9 °F89 %30.00 in3.0 miNNW (340°)21.9 mph26.5 mph0.00 inSnowLight Snow
7:03 AM30.2 °F28.4 °F93 %30.01 in8.0 miNNW (340°)20.7 mphSnowLight Snow
7:10 AM30.2 °F26.6 °F86 %30.01 in10.0 miNNW (340°)18.4 mphSnowLight Snow
7:55 AM30.7 °F27.0 °F86 %30.04 in10.0 miNNW (330°)19.6 mph26.5 mph0.00 inOvercast
8:55 AM30.7 °F25.2 °F80 %30.05 in10.0 miNNW (330°)23.0 mph28.8 mph0.00 inOvercast
9:54 AM32.0 °F24.8 °F75 %30.06 in10.0 miNNW (330°)23.0 mph31.1 mphOvercast
9:55 AM31.3 °F25.0 °F77 %30.07 in10.0 miNNW (330°)23.0 mph31.1 mph0.00 inOvercast
10:16 AM32.0 °F24.8 °F75 %30.06 in7.0 miNNW (340°)23.0 mph31.1 mphOvercast
10:21 AM32.0 °F26.6 °F80 %30.06 in7.0 miNNW (340°)23.0 mph31.1 mphSnowLight Snow
10:25 AM32.0 °F26.6 °F80 %30.07 in8.0 miNNW (340°)19.6 mph28.8 mphSnowLight Snow
10:35 AM32.0 °F26.6 °F80 %30.08 in10.0 miNNW (330°)23.0 mph27.6 mphSnowLight Snow
10:44 AM32.0 °F26.6 °F80 %30.08 in10.0 miNNW (330°)23.0 mphOvercast
10:50 AM32.0 °F26.6 °F80 %30.08 in10.0 miNNW (340°)24.2 mph29.9 mphOvercast
10:55 AM31.5 °F26.1 °F80 %30.07 in10.0 miNNW (340°)21.9 mph29.9 mph0.00 inOvercast
10:57 AM32.0 °F26.6 °F80 %30.08 in10.0 miNNW (340°)23.0 mph29.9 mphOvercast
11:00 AM32.0 °F26.6 °F80 %30.08 in10.0 miNNW (340°)25.3 mph28.8 mphOvercast
11:05 AM32.0 °F26.6 °F80 %30.08 in10.0 miNNW (340°)24.2 mphOvercast
11:16 AM32.0 °F26.6 °F80 %30.07 in10.0 miNNW (330°)25.3 mph31.1 mphOvercast
11:40 AM32.0 °F24.8 °F75 %30.09 in10.0 miNNW (330°)25.3 mph32.2 mphOvercast
11:55 AM31.5 °F25.5 °F79 %30.09 in10.0 miNNW (330°)23.0 mph32.2 mph0.00 inOvercast
12:55 PM31.3 °F25.0 °F77 %30.09 in10.0 miNNW (340°)24.2 mph29.9 mphOvercast
1:36 PM33.8 °F24.8 °F70 %30.08 in10.0 miNNW (340°)26.5 mph34.5 mphMostly Cloudy
1:54 PM33.8 °F26.6 °F75 %30.08 in10.0 miNNW (340°)20.7 mphMostly Cloudy
1:55 PM33.6 °F25.9 °F73 %30.07 in10.0 miNNW (340°)21.9 mph28.8 mphMostly Cloudy
1:59 PM33.8 °F26.6 °F75 %30.08 in10.0 miNNW (330°)23.0 mph28.8 mphMostly Cloudy
2:19 PM32.0 °F24.8 °F75 %30.09 in10.0 miNNW (330°)21.9 mphOvercast
2:26 PM32.0 °F24.8 °F75 %30.08 in10.0 miNNW (330°)21.9 mphOvercast
2:32 PM32.0 °F24.8 °F75 %30.08 in10.0 miNNW (340°)20.7 mphOvercast
2:52 PM33.8 °F24.8 °F70 %30.09 in10.0 miNNW (330°)19.6 mphOvercast
2:55 PM33.1 °F25.2 °F73 %30.09 in10.0 miNNW (330°)20.7 mphOvercast
3:55 PM33.6 °F24.3 °F69 %30.09 in10.0 miNNW (330°)25.3 mph28.8 mphOvercast
4:55 PM33.4 °F23.4 °F67 %30.11 in10.0 miNNW (330°)19.6 mphOvercast
5:55 PM32.7 °F21.9 °F64 %30.12 in10.0 miNW (320°)12.7 mphOvercast
6:55 PM28.4 °F20.1 °F71 %30.15 in10.0 miNW (310°)11.5 mphClear
7:55 PM25.5 °F19.2 °F77 %30.17 in10.0 miNW (310°)10.4 mphClear
8:55 PM22.8 °F17.6 °F80 %30.17 in10.0 miNW (310°)10.4 mphClear
9:55 PM27.7 °F18.3 °F68 %30.17 in10.0 miNNW (330°)11.5 mphClear
10:55 PM27.5 °F18.0 °F67 %30.16 in10.0 miNW (320°)9.2 mphClear
11:55 PM20.7 °F14.5 °F77 %30.17 in10.0 miNW (310°)9.2 mphClear
Hourly data recorded from KRCA, located miles away from Box Elder, South Dakota







STORIES FROM OUR PARTNERS